Tracking 26321 objects as of 28-Nov-2022
HD Live streaming from Space Station
objects crossing your sky now

ATLAS 5 CENTAUR DEB

Track ATLAS 5 CENTAUR DEB now!


NORAD ID: 44645
Int'l Code: 2018-079F
Perigee: 8,211.0 km
Apogee: 34,155.7 km
Inclination: 11.2 °
Period: 758.7 minutes
Semi major axis: 27554 km
RCS: Unknown
Launch date: October 17, 2018
Source: United States (US)
Launch site: AIR FORCE EASTERN TEST RANGE (AFETR)

Note: This is SATELLITE DEBRIS
aabbcc
Your satellite tracking list
Your tracking list is empty




NASA's NSSDC Master Catalog

Two Line Element Set (TLE):
1 44645U 18079F   22330.04940743 -.00000053  00000-0  00000+0 0  9997
2 44645  11.2435 141.5631 4707909 113.7686 301.8289  1.89809176 28370
Source of the keplerian elements: AFSPC